Estación de La capilla

Ultimos registro cada 15 minutos 82
Estación Fecha / Hora Temperatura Humedad Lluvia Velocidad Dirección Radiación Presion
82 La capilla 02-05-2026 20:15 4,8 90 0 0,9 360 0 1090,8
81 La capilla 02-05-2026 20:00 5,2 89 0 0 360 0 1090,9
80 La capilla 02-05-2026 19:45 5,7 87 0 0 360 0 1090,8
79 La capilla 02-05-2026 19:30 6,2 86 0 0 360 0 1090,8
78 La capilla 02-05-2026 19:15 6,8 85 0 0 360 0 1090,8
77 La capilla 02-05-2026 19:00 7,6 83 0 0 360 0 1090,8
76 La capilla 02-05-2026 18:45 8,6 80 0 0 360 0 1090,7
75 La capilla 02-05-2026 18:30 9,7 77 0 0 360 0 1090,6
74 La capilla 02-05-2026 18:15 11,1 73 0 0 360 0 1090,3
73 La capilla 02-05-2026 18:00 12,7 66 0 0 360 0 1090,2
72 La capilla 02-05-2026 17:45 14 62 0 0 360 7 1089,9
71 La capilla 02-05-2026 17:30 14,9 58 0 0 360 12 1089,9
70 La capilla 02-05-2026 17:15 15,8 55 0 0 360 14 1090,1
69 La capilla 02-05-2026 17:00 16,1 51 0 0,9 328 18 1090,2
68 La capilla 02-05-2026 16:45 16,2 51 0 0,9 327 19 1090,2
67 La capilla 02-05-2026 16:30 16,4 50 0 0 327 19 1090,1
66 La capilla 02-05-2026 16:15 16,8 48 0 0 327 21 1090,1
65 La capilla 02-05-2026 16:00 17 48 0 0 327 70 1090
64 La capilla 02-05-2026 15:45 17,2 43 0 0 327 42 1090
63 La capilla 02-05-2026 15:30 17,3 42 0 0,4 360 86 1089,8
62 La capilla 02-05-2026 15:15 17,4 44 0 0,4 324 387 1089,9
61 La capilla 02-05-2026 15:00 17,4 42 0 0,9 323 417 1089,9
60 La capilla 02-05-2026 14:45 17,1 44 0 0,9 360 480 1090,1
59 La capilla 02-05-2026 14:30 16,9 44 0 0,9 5 508 1090,3
58 La capilla 02-05-2026 14:15 16,7 45 0 1,8 332 533 1090,6
57 La capilla 02-05-2026 14:00 16,3 47 0 1,3 360 334 1090,8
56 La capilla 02-05-2026 13:45 15,7 49 0 1,3 342 353 1091,1
55 La capilla 02-05-2026 13:30 15,3 48 0 1,8 333 575 1091,3
54 La capilla 02-05-2026 13:15 14,9 51 0 0,4 339 589 1091,5
53 La capilla 02-05-2026 13:00 14,7 49 0 0,4 320 587 1091,9
52 La capilla 02-05-2026 12:45 14,1 53 0 0,4 346 601 1092,3
51 La capilla 02-05-2026 12:30 13,6 54 0 1,8 295 598 1092,7
50 La capilla 02-05-2026 12:15 13,3 53 0 3,1 307 596 1093,1
49 La capilla 02-05-2026 12:00 13,1 55 0 0,9 360 587 1093,4
48 La capilla 02-05-2026 11:45 12,5 57 0 1,8 360 575 1093,5
47 La capilla 02-05-2026 11:30 11,9 58 0 1,3 323 561 1093,8
46 La capilla 02-05-2026 11:15 11,5 60 0 1,8 291 543 1094,2
45 La capilla 02-05-2026 11:00 11,4 59 0 1,3 313 520 1094,2
44 La capilla 02-05-2026 10:45 11,1 58 0 1,3 5 496 1094,6
43 La capilla 02-05-2026 10:30 10,7 62 0 2,2 350 468 1094,7
42 La capilla 02-05-2026 10:15 10 63 0 1,3 332 244 1095,2
41 La capilla 02-05-2026 10:00 8,7 73 0 0,9 346 35 1095,2
40 La capilla 02-05-2026 09:45 7,9 76 0 0 355 360 1095,6
39 La capilla 02-05-2026 09:30 6,1 80 0 0 360 311 1095,7
38 La capilla 02-05-2026 09:15 4,1 87 0 0,4 360 163 1095,7
37 La capilla 02-05-2026 09:00 2,3 89 0 0 360 236 1095,4
36 La capilla 02-05-2026 08:45 0,8 93 0 0 360 90 1095,2
35 La capilla 02-05-2026 08:30 -0,3 93 0 0 360 149 1095,3
34 La capilla 02-05-2026 08:15 -0,7 91 0 0 360 19 1095
33 La capilla 02-05-2026 08:00 -0,5 90 0 0 360 12 1094,9
32 La capilla 02-05-2026 07:45 -0,3 89 0 0 360 9 1094,8
31 La capilla 02-05-2026 07:30 0,1 87 0 0 350 0 1094,8
30 La capilla 02-05-2026 07:15 0,9 85 0 0,4 360 0 1094,9
29 La capilla 02-05-2026 07:00 2,1 82 0 0 360 0 1094,9
28 La capilla 02-05-2026 06:45 3,5 80 0 0 360 0 1095
27 La capilla 02-05-2026 06:30 4,6 78 0 0 360 0 1094,9
26 La capilla 02-05-2026 06:15 5,6 77 0 0,9 360 0 1095
25 La capilla 02-05-2026 06:00 6 75 0 0,9 360 0 1095,2
24 La capilla 02-05-2026 05:45 6,1 75 0 0,9 360 0 1095,3
23 La capilla 02-05-2026 05:30 6,5 75 0 0,4 360 0 1095,2
22 La capilla 02-05-2026 05:15 7,1 73 0 0,4 360 0 1095,4
21 La capilla 02-05-2026 05:00 7,1 74 0 1,8 360 0 1095,6
20 La capilla 02-05-2026 04:45 7,2 74 0 1,8 360 0 1095,9
19 La capilla 02-05-2026 04:30 7,2 75 0 1,3 360 0 1096,1
18 La capilla 02-05-2026 04:15 7,2 76 0 1,3 360 0 1096,1
17 La capilla 02-05-2026 04:00 7,1 77 0 3,6 360 0 1096,4
16 La capilla 02-05-2026 03:45 6,9 78 0 0,9 360 0 1096,7
15 La capilla 02-05-2026 03:30 7,3 77 0 1,8 360 0 1096,9
14 La capilla 02-05-2026 03:15 7,5 76 0 4 360 0 1097,1
13 La capilla 02-05-2026 03:00 7,6 77 0 1,8 360 0 1097,4
12 La capilla 02-05-2026 02:45 7,5 78 0 2,2 360 0 1097,7
11 La capilla 02-05-2026 02:30 7,5 78 0 2,2 360 0 1098
10 La capilla 02-05-2026 02:15 7,5 78 0 1,8 360 0 1098,1
9 La capilla 02-05-2026 02:00 7,3 79 0 1,8 360 0 1098,3
8 La capilla 02-05-2026 01:45 7,3 79 0 2,7 360 0 1098,7
7 La capilla 02-05-2026 01:30 7,2 79 0 0,9 360 0 1099
6 La capilla 02-05-2026 01:15 7,1 80 0 2,7 360 0 1099,2
5 La capilla 02-05-2026 01:00 7,1 80 0 1,8 360 0 1099,5
4 La capilla 02-05-2026 00:45 7,2 80 0 1,8 360 0 1099,7
3 La capilla 02-05-2026 00:30 7,1 81 0 1,3 360 0 1099,9
2 La capilla 02-05-2026 00:15 7,2 81 0 2,2 360 0 1100,1
1 La capilla 02-05-2026 00:00 7,4 81 0 0,9 360 0 1100